Alturas, CA

8:56 PM PDT on May 22, 2017 (GMT -0700)
Alturas Municipal

Weather History for KAAT - March, 2013

Change the Weather History Date:

Saturday, March 30, 2013

  Actual Average Record
Temperature  
Mean Temperature 49 °F 40 °F  
Max Temperature 74 °F 54 °F 82 °F (1966)
Min Temperature 24 °F 26 °F 12 °F (1998)
Degree Days  
Heating Degree Days 16 25  
Month to date heating degree days 747 799  
Since 1 July heating degree days 5333 5666  
Cooling Degree Days 0 0  
Month to date cooling degree days 0 0  
Year to date cooling degree days 0 0  
Moisture  
Dew Point 29 °F    
Average Humidity 53    
Maximum Humidity 92    
Minimum Humidity 14    
Precipitation  
Precipitation 0.00 in 0.06 in 0.37 in (2010)
Month to date precipitation 0.15 1.47  
Year to date precipitation 0.88 4.57  
Sea Level Pressure  
Sea Level Pressure 30.08 in    
Wind  
Wind Speed 4 mph (South)    
Max Wind Speed 17 mph    
Max Gust Speed 23 mph    
Visibility 10 miles    
Events      
T = Trace of Precipitation, MM = Missing Value Source: NWS Daily Summary

Daily Weather History Graph

Daily Weather History Graph

Search for Another Location

Airport or City:

Trip Planner

Search our weather history database for the weather conditions in past years. The results will help you decide how hot, cold, wet, or windy it might be!

Date:

Astronomy

Mar. 30, 2013 Rise Set
Actual Time 6:48 AM PDT 7:25 PM PDT
Civil Twilight 6:20 AM PDT 7:53 PM PDT
Nautical Twilight 5:47 AM PDT 8:26 PM PDT
Astronomical Twilight 5:13 AM PDT 9:00 PM PDT
Moon 11:41 PM PDT (3/30) 8:44 AM PDT (3/30)
Length of Visible Light 13h 33m
Length of Day
12h 37m
Waning Gibbous, 85% of the Moon is Illuminated
Mar 30
Waning Gibbous
Apr 2
Last Quarter
Apr 10
New
Apr 18
First Quarter
Apr 25
Full

Hourly Weather History & Observations

Time (PDT) Temp. Dew Point Humidity Pressure Visibility Wind Dir Wind Speed Gust Speed Precip Events Conditions
12:55 AM 34.0 °F 28.0 °F 79% 30.16 in 10.0 mi Calm Calm - N/A   Clear
1:55 AM 30.0 °F 26.1 °F 85% 30.17 in 10.0 mi Calm Calm - N/A   Clear
2:55 AM 33.1 °F 28.0 °F 82% 30.16 in 10.0 mi Calm Calm - N/A   Clear
3:55 AM 28.0 °F 26.1 °F 92% 30.17 in 8.0 mi Calm Calm - N/A   Clear
4:55 AM 28.0 °F 27.0 °F 96% 30.17 in 10.0 mi Calm Calm - N/A   Clear
5:55 AM 25.0 °F 21.9 °F 88% 30.17 in 10.0 mi Calm Calm - N/A   Clear
6:55 AM 25.0 °F 23.0 °F 92% 30.18 in 10.0 mi Calm Calm - N/A   Clear
7:55 AM 32.0 °F 28.0 °F 85% 30.18 in 10.0 mi Calm Calm - N/A   Clear
8:55 AM 41.0 °F 32.0 °F 70% 30.17 in 10.0 mi Calm Calm - N/A   Clear
9:55 AM 51.1 °F 36.0 °F 56% 30.15 in 10.0 mi Calm Calm - N/A   Clear
10:55 AM 60.1 °F 34.0 °F 38% 30.12 in 10.0 mi Calm Calm - N/A   Clear
11:55 AM 66.9 °F 32.0 °F 27% 30.09 in 10.0 mi Calm Calm - N/A   Clear
12:55 PM 68.0 °F 27.0 °F 21% 30.09 in 10.0 mi Variable 3.5 mph - N/A   Clear
1:55 PM 70.0 °F 27.0 °F 20% 30.07 in 10.0 mi Variable 4.6 mph - N/A   Clear
2:55 PM 73.0 °F 24.1 °F 16% 30.02 in 10.0 mi South 9.2 mph - N/A   Clear
3:55 PM 71.1 °F 19.9 °F 14% 30.01 in 10.0 mi ESE 8.1 mph - N/A   Clear
4:55 PM 70.0 °F 21.9 °F 16% 30.00 in 10.0 mi SSE 4.6 mph - N/A   Mostly Cloudy
5:55 PM 70.0 °F 21.9 °F 16% 29.99 in 10.0 mi SE 4.6 mph - N/A   Clear
6:55 PM 66.0 °F 23.0 °F 20% 29.99 in 10.0 mi Calm Calm - N/A   Clear
7:55 PM 59.0 °F 35.1 °F 41% 30.00 in 10.0 mi West 17.3 mph 23.0 mph N/A   Mostly Cloudy
8:35 PM 55.4 °F 35.6 °F 47% 30.02 in 10.0 mi West 9.2 mph - N/A   Mostly Cloudy
8:55 PM 54.0 °F 36.0 °F 51% 29.99 in 10.0 mi West 8.1 mph - N/A   Scattered Clouds
9:55 PM 54.0 °F 37.0 °F 53% 29.98 in 10.0 mi West 9.2 mph - N/A   Overcast
10:55 PM 52.0 °F 37.0 °F 57% 29.98 in 10.0 mi ENE 5.8 mph - N/A   Mostly Cloudy
11:55 PM 48.9 °F 36.0 °F 61% 29.96 in 10.0 mi NE 4.6 mph - N/A   Partly Cloudy